Flag for U.S.A. Weather past 2 weeks in Mobile, Alabama, U.S.A.

Now
46 °F

Passing clouds.


Feels Like: 45 °F
Forecast: 48 / 66 °F
Wind: 3 mph from Northeast

Location: Mobile Downtown Airport

Current Time: Feb 1, 2015 at 4:29:12 AM

Latest Report: Feb 1, 2015 at 3:53 AM


Visibility: 10 mi

Pressure: 30.11 "Hg

Humidity: 96%

Dew point: 45 °F

Location of MobileLocation

Historic Weather in Mobile — Graph

°F

Mobile temperature yesterday

Maximum temperature yesterday: 62 °F (at 2:53 PM)
Minimum temperature yesterday: 42 °F (at 12:53 AM)
Average temperature yesterday: 49 °F

Past Weeks' High & Low Weather Summary

 TemperatureHumidityPressure
High71 °F (Jan 27, 2:53 PM)100% (Jan 21, 12:53 AM)30.40 "Hg (Jan 21, 12:53 AM)
Low34 °F (Jan 19, 5:53 AM)21% (Jan 18, 2:53 PM)29.83 "Hg (Jan 23, 1:53 PM)
Average52 °F69%30.13 "Hg
* Reported Jan 17 2:53 AM — Feb 1 2:53 AM, Mobile, Weather by CustomWeather, © 2014

Note: Actual official high and low records may vary slightly from our data, if they occured in-between our weather recording intervals... More about our weather records

Advertising

Mobile weather history for previous 24 hours

 ConditionsComfort  
Time TempWeatherWind HumidityBarometerVisibility
2:53 AM
Feb 1
48 °FPassing clouds.5 mph89%30.13 "Hg10 mi
1:53 AM46 °FPassing clouds.6 mph93%30.16 "Hg10 mi
12:53 AM45 °FPassing clouds.No wind93%30.19 "Hg7 mi
11:53 PM
Jan 31
44 °FPassing clouds.No wind96%30.20 "Hg7 mi
10:53 PM48 °FClear.No wind89%30.20 "Hg10 mi
9:53 PM49 °FClear.5 mph90%30.21 "Hg10 mi
8:53 PM52 °FClear.6 mph86%30.23 "Hg10 mi
7:53 PM52 °FClear.7 mph80%30.24 "Hg10 mi
6:53 PM52 °FClear.7 mph83%30.24 "Hg10 mi
5:53 PM51 °FClear.5 mph89%30.24 "Hg10 mi
4:53 PM56 °FSunny.3 mph70%30.23 "Hg10 mi
3:53 PM59 °FSunny.6 mph58%30.24 "Hg10 mi
2:53 PM62 °FSunny.3 mph38%30.25 "Hg10 mi
1:53 PM59 °FSunny.5 mph33%30.27 "Hg10 mi
12:53 PM58 °FSunny.3 mph32%30.30 "Hg10 mi
11:53 AM54 °FSunny.3 mph34%30.34 "Hg10 mi
10:53 AM50 °FSunny.3 mph41%30.37 "Hg10 mi
9:53 AM48 °FSunny.6 mph46%30.38 "Hg10 mi
8:53 AM45 °FSunny.8 mph53%30.37 "Hg10 mi
7:53 AM43 °FSunny.9 mph56%30.35 "Hg10 mi
6:53 AM42 °FSunny.9 mph60%30.34 "Hg10 mi
5:53 AM43 °FClear.12 mph56%30.32 "Hg10 mi
4:53 AM43 °FClear.10 mph60%30.32 "Hg10 mi
Weather by CustomWeather, © 2014

See weather overviewHow to use our weather pages